Location: ????????
(60.4333°N, 46.4710°E)
Time: 04:26:54
(UTC+00:00)

MOS 1 - Pass Details

Date: 25 November 2020
Orbit: 879 x 890 km, 99.1° (Epoch: 19 January)

Event Time Altitude Azimuth Distance (km) Brightness Sun altitude
Exits shadow 15:44:41 53° 33° (NNE) 1,083 4.5 -25.9°
Drops below altitude 10° 15:49:32 10° 345° (NNW) 2,552 6.9 -26.5°
Sets 15:51:58 0° 341° (NNW) 3,495 7.7 -26.8°
